Date,TemperatureHighF,TemperatureAvgF,TemperatureLowF,DewpointHighF,DewpointAvgF,DewpointLowF,HumidityHigh,HumidityAvg,HumidityLow,PressureMaxIn,PressureMinIn,WindSpeedMaxMPH,WindSpeedAvgMPH,GustSpeedMaxMPH,PrecipitationSumIn
2013-1-1,58.1,53.9,51.7,53.5,49.8,46.1,95,86,69,30.12,29.93,22,9,22,0.00
2013-1-2,54.6,47.8,41.1,53.2,45.9,37.8,96,93,88,30.17,29.88,17,6,17,0.25
2013-1-3,42.1,40.7,37.4,38.7,36.8,34.2,91,86,82,30.23,30.10,15,5,15,0.05
2013-1-4,51.6,42.3,34.3,34.8,32.2,28.1,92,70,41,30.29,30.17,16,5,16,0.00
2013-1-5,49.7,42.0,34.7,41.0,30.3,25.6,74,63,43,30.36,30.23,13,5,13,0.00
2013-1-6,50.1,47.0,43.8,45.6,40.9,36.4,92,79,66,30.26,30.05,14,3,14,0.00
2013-1-7,52.9,45.8,39.8,44.7,37.5,32.6,92,74,49,30.42,30.10,23,8,23,0.00
2013-1-8,59.7,51.2,41.3,52.2,45.2,34.1,89,80,70,30.42,30.32,18,8,18,0.00
2013-1-9,65.8,56.8,50.9,58.4,53.0,48.4,93,87,74,30.40,30.32,10,4,10,0.00
2013-1-10,62.2,55.9,48.6,56.1,47.0,38.2,96,74,45,30.48,30.36,19,7,19,0.00
2013-1-11,62.4,55.1,48.7,61.0,52.4,41.5,98,91,76,30.40,30.13,20,7,20,0.02
2013-1-12,62.2,56.7,54.0,61.0,55.9,53.2,98,97,94,30.16,30.08,10,3,10,0.01
2013-1-13,61.1,57.8,53.6,60.0,56.9,53.0,98,97,95,30.15,30.08,13,2,13,0.01
2013-1-14,63.7,59.4,56.0,61.8,58.2,54.9,97,95,90,30.17,30.08,16,4,16,0.00
2013-1-15,61.0,56.4,54.1,60.4,55.8,53.3,98,98,96,30.17,30.05,17,5,17,0.02
2013-1-16,62.3,59.1,55.4,60.6,57.9,54.7,99,96,93,30.05,29.94,17,5,17,0.01
2013-1-17,61.6,54.7,42.3,60.3,53.6,40.7,99,96,93,29.97,29.76,34,8,34,0.38
2013-1-18,48.1,42.2,37.7,41.3,34.0,27.6,94,74,50,30.50,29.91,22,8,24,0.01
2013-1-19,57.7,44.5,35.5,50.2,36.8,29.8,91,75,55,30.48,30.16,12,4,12,0.00
2013-1-20,57.7,52.3,47.4,51.7,47.3,39.3,92,83,62,30.17,29.97,19,8,19,0.00
2013-1-21,57.4,51.2,43.4,51.7,43.3,35.3,89,74,60,30.05,29.85,23,7,23,0.00
2013-1-22,53.6,41.5,32.1,39.1,17.5,6.8,59,39,22,30.25,29.91,23,7,23,0.00
2013-1-23,46.5,35.3,27.0,33.6,13.8,2.5,61,42,25,30.36,30.10,22,7,22,0.00
2013-1-24,51.6,38.8,26.7,41.9,23.4,7.8,74,54,35,30.49,29.96,36,14,36,0.00
2013-1-25,39.0,30.8,24.3,32.7,21.9,10.6,94,70,50,30.49,30.07,16,5,16,0.15
2013-1-26,41.9,34.0,29.9,36.1,30.5,26.8,93,87,78,30.36,30.09,15,6,15,0.00
2013-1-27,42.2,35.1,29.0,31.8,28.1,23.0,94,77,49,30.55,30.36,20,6,20,0.00
2013-1-28,53.2,43.3,33.5,51.3,39.9,28.0,95,88,79,30.49,30.23,14,5,14,0.01
2013-1-29,58.1,54.0,49.8,55.9,52.5,48.9,97,95,88,30.23,30.11,13,6,13,0.01
2013-1-30,63.7,59.1,53.1,61.2,57.7,52.3,98,95,91,30.13,29.61,32,12,32,0.01
2013-1-31,64.7,54.2,45.4,62.1,40.9,24.5,95,64,30,30.05,29.50,38,19,48,0.11
2013-2-1,52.4,44.0,31.9,38.2,22.5,4.4,65,44,18,30.37,29.99,44,15,44,0.00
2013-2-2,50.1,36.9,26.8,44.5,24.2,9.3,87,60,35,30.40,30.01,14,4,14,0.00
2013-2-3,51.7,46.2,41.1,44.3,35.6,30.2,85,68,44,30.01,29.83,23,7,23,0.00
2013-2-4,49.5,42.2,33.9,40.7,29.4,22.7,74,61,42,30.14,29.96,15,5,15,0.00
2013-2-5,54.4,50.5,46.0,49.5,44.2,36.8,92,79,70,30.03,29.87,23,10,23,0.00
2013-2-6,62.1,52.0,46.4,49.4,46.3,40.5,92,82,46,30.23,29.95,16,5,16,0.00
2013-2-7,59.6,52.4,46.8,54.1,48.7,43.7,96,88,72,30.25,29.81,40,13,40,2.37
2013-2-8,58.6,52.4,46.8,58.0,48.7,40.8,98,87,72,29.97,29.45,27,11,33,0.66
2013-2-9,52.4,45.4,39.8,40.7,28.0,19.9,76,52,31,30.35,29.97,25,7,25,0.00
2013-2-10,51.4,44.7,35.9,47.4,36.8,27.9,89,74,59,30.46,30.27,17,8,17,0.00
2013-2-11,59.3,57.2,50.1,57.7,55.1,46.7,97,93,85,30.30,29.93,29,13,29,0.06
2013-2-12,59.2,55.8,52.6,56.6,51.2,42.6,97,85,55,30.06,29.92,19,7,19,0.04
2013-2-13,55.7,51.5,47.9,54.9,49.7,45.5,98,94,85,29.98,29.61,23,8,23,0.34
2013-2-14,52.4,47.9,42.0,48.3,40.8,37.2,86,77,63,30.07,29.77,18,5,18,0.00
2013-2-15,53.0,48.1,39.8,44.1,41.0,37.3,92,77,59,30.07,29.94,13,5,13,0.00
2013-2-16,50.2,43.0,34.1,45.1,39.4,32.3,94,87,76,29.94,29.67,25,7,25,0.15
2013-2-17,37.5,34.1,31.0,33.2,21.9,11.0,94,64,34,30.26,29.83,32,11,32,0.02
2013-2-18,52.1,38.8,28.0,41.2,23.0,13.1,67,53,38,30.43,30.26,22,7,22,0.00
2013-2-19,57.4,54.2,51.1,53.4,50.0,40.9,94,86,68,30.29,29.89,45,12,45,0.08
2013-2-20,54.9,47.8,41.5,44.7,32.8,11.3,91,61,18,30.09,29.93,23,7,23,0.00
2013-2-21,53.2,43.7,33.7,39.8,30.7,21.6,77,61,33,30.24,30.06,16,6,16,0.00
2013-2-22,52.1,44.1,38.9,50.1,37.1,27.5,93,77,60,30.31,30.06,27,8,27,0.01
2013-2-23,59.7,50.7,46.5,58.3,49.7,45.7,97,97,92,30.06,29.80,19,5,19,0.56
2013-2-24,59.9,50.8,46.3,51.7,48.7,45.8,98,93,65,29.98,29.72,15,5,15,0.01
2013-2-25,49.7,42.7,38.0,48.3,35.8,31.8,95,77,64,30.17,29.97,24,9,24,0.01
2013-2-26,63.9,53.8,41.4,62.9,51.7,35.4,98,93,79,30.07,29.59,36,15,36,0.55
2013-2-27,55.9,52.6,49.9,55.3,47.7,41.2,98,84,66,29.79,29.60,29,11,29,0.00
2013-2-28,55.1,49.7,44.4,48.5,39.9,33.4,88,70,51,29.82,29.67,19,9,23,0.00
2013-3-1,50.0,44.9,38.4,40.9,33.5,29.1,75,65,45,29.88,29.78,15,7,18,0.00
2013-3-2,51.1,44.3,38.6,34.8,32.0,29.0,78,63,45,29.88,29.76,13,5,17,0.00
2013-3-3,46.4,40.1,33.7,31.5,26.8,22.9,77,60,42,29.92,29.80,17,6,17,0.00
2013-3-4,47.7,39.4,30.9,27.1,21.3,17.1,65,49,32,30.08,29.92,21,8,21,0.00
2013-3-5,58.9,51.8,40.6,54.8,42.9,23.4,90,73,47,30.09,29.61,22,10,27,0.02
2013-3-6,59.2,48.1,42.1,55.5,38.1,27.5,92,69,46,29.89,29.48,47,20,47,0.04
2013-3-7,53.5,45.7,38.7,34.3,32.2,29.6,76,60,43,30.15,29.89,27,9,27,0.00
2013-3-8,53.7,45.6,37.5,31.5,28.7,25.7,70,53,36,30.19,30.06,28,9,28,0.00
2013-3-9,61.5,49.7,39.2,46.3,34.2,27.6,78,57,34,30.27,30.18,20,6,20,0.00
2013-3-10,53.5,47.8,37.2,49.5,41.1,33.2,90,78,50,30.29,30.22,15,7,15,0.00
2013-3-11,58.9,54.0,48.4,55.6,50.9,45.9,92,89,82,30.24,29.97,20,8,20,0.00
2013-3-12,59.2,57.8,56.1,58.3,56.2,54.6,98,94,88,29.98,29.77,21,10,21,0.79
2013-3-13,59.5,52.6,46.7,58.0,39.9,27.7,95,63,31,30.03,29.84,19,8,22,0.00
2013-3-14,51.1,43.8,35.6,31.7,24.0,19.5,57,46,33,30.19,30.02,25,9,25,0.00
2013-3-15,54.5,47.4,37.9,48.1,33.0,19.9,79,58,30,30.18,29.94,30,11,30,0.00
2013-3-16,57.9,56.0,54.5,52.8,51.3,48.1,87,84,79,29.94,29.71,35,18,35,0.00
2013-3-17,58.7,53.3,47.5,54.2,49.4,42.3,93,87,72,30.12,29.83,26,12,26,0.00
2013-3-18,56.8,52.5,48.0,54.6,49.7,43.7,96,90,82,30.10,29.88,23,6,23,0.00
2013-3-19,67.8,57.5,54.5,57.8,52.7,38.9,97,85,39,29.94,29.72,21,8,21,0.34
2013-3-20,56.2,51.0,46.4,39.4,26.0,13.1,67,39,18,30.08,29.79,18,5,18,0.00
2013-3-21,51.2,45.3,37.6,38.0,29.7,17.0,83,56,29,29.93,29.66,26,7,26,0.00
2013-3-22,49.7,39.3,30.4,37.6,23.1,13.7,67,52,37,30.07,29.93,24,8,24,0.00
2013-3-23,53.1,48.6,43.1,41.8,35.0,29.0,75,60,41,30.02,29.89,12,4,12,0.00
2013-3-24,57.5,48.9,44.3,55.5,45.2,38.0,95,87,67,29.91,29.39,42,12,42,0.52
2013-3-25,50.4,46.0,42.7,43.9,38.4,30.2,96,76,50,29.79,29.47,34,11,34,0.00
2013-3-26,47.9,43.7,37.0,35.2,30.5,27.2,73,60,46,30.05,29.78,22,8,22,0.00
2013-3-27,53.8,46.0,37.2,33.7,29.1,23.3,74,54,33,30.17,30.05,24,8,24,0.00
2013-3-28,55.1,46.9,37.6,34.9,28.0,25.0,68,49,32,30.22,30.11,24,6,24,0.00
2013-3-29,55.4,47.7,38.3,44.9,34.0,26.1,75,60,33,30.30,30.18,24,8,24,0.00
2013-3-30,59.0,54.0,48.4,49.9,45.8,40.7,84,74,56,30.22,30.11,18,6,18,0.00
2013-3-31,58.2,56.2,53.0,54.8,52.4,46.1,93,87,77,30.12,29.84,32,11,32,0.00
2013-4-1,60.0,56.5,54.8,58.8,55.0,53.1,97,95,92,29.88,29.79,20,7,20,0.01
2013-4-2,56.2,52.5,47.3,54.5,42.8,31.3,96,71,39,30.11,29.88,16,7,18,0.00
2013-4-3,53.7,50.2,47.3,49.8,40.7,30.7,90,70,45,30.27,30.08,18,8,18,0.00
2013-4-4,62.4,50.7,46.0,61.0,44.4,36.0,98,79,65,30.29,29.74,34,13,34,1.20
2013-4-5,61.2,51.6,43.9,59.9,48.3,43.0,97,89,74,29.99,29.71,21,6,21,0.00
2013-4-6,60.5,52.2,46.5,48.1,41.3,32.9,92,69,37,30.27,29.99,23,9,24,0.00
2013-4-7,59.5,53.4,44.9,55.9,49.9,40.9,94,88,82,30.26,30.14,12,5,12,0.00
2013-4-8,62.2,59.8,56.8,59.0,57.1,54.5,93,90,86,30.19,30.11,17,6,17,0.00
2013-4-9,63.1,61.0,59.1,60.7,59.0,56.9,95,93,88,30.21,30.10,17,7,17,0.00
2013-4-10,64.4,61.3,58.3,61.2,59.6,57.5,97,94,89,30.14,30.00,21,9,21,0.01
2013-4-11,64.8,61.9,58.3,63.3,60.7,57.2,97,96,94,30.02,29.87,17,8,17,0.00
2013-4-12,68.0,63.2,61.0,67.1,62.3,60.2,98,97,95,29.88,29.68,32,13,32,0.98
2013-4-13,63.2,59.2,57.1,60.6,54.4,49.0,99,84,62,30.01,29.73,21,10,21,0.01
2013-4-14,66.7,60.8,54.8,60.4,56.8,52.7,94,87,77,30.10,30.00,14,3,14,0.00
2013-4-15,67.2,63.7,60.3,62.9,60.0,56.4,93,88,80,30.18,29.96,38,11,38,0.51
2013-4-16,70.1,64.6,60.9,65.2,61.9,59.5,97,91,81,30.25,30.15,14,6,14,0.00
2013-4-17,67.0,64.6,62.4,62.6,61.4,58.8,93,89,82,30.22,30.14,10,4,10,0.00
2013-4-18,67.5,66.1,64.8,64.7,63.2,62.2,92,90,87,30.20,30.07,12,7,12,0.00
2013-4-19,70.3,67.9,65.9,67.5,66.0,64.2,96,94,87,30.08,29.86,34,15,34,0.05
2013-4-20,68.4,58.6,51.9,66.8,53.0,45.4,98,82,67,30.24,29.85,27,9,27,0.57
2013-4-21,60.9,54.8,48.2,48.5,43.8,38.4,89,68,47,30.42,30.23,34,12,34,0.00
2013-4-22,56.7,51.9,47.8,52.7,48.4,40.7,95,88,75,30.38,30.12,30,12,30,0.01
2013-4-23,64.4,57.1,51.5,54.4,51.9,50.4,96,84,64,30.16,30.07,21,9,21,0.00
2013-4-24,64.4,60.2,56.6,61.9,57.0,52.4,93,89,85,30.18,30.04,19,8,19,0.00
2013-4-25,69.1,61.5,53.6,63.9,57.3,48.5,97,86,72,30.26,30.04,23,10,23,0.11
2013-4-26,67.3,58.0,49.4,53.5,47.4,33.8,92,70,29,30.38,30.24,22,11,22,0.00
2013-4-27,66.3,60.1,54.2,55.5,51.3,41.1,89,74,44,30.36,30.26,20,10,20,0.00
2013-4-28,65.0,61.7,55.7,59.9,52.4,38.1,87,72,42,30.27,30.10,22,9,22,0.00
2013-4-29,65.1,63.7,61.4,63.1,60.7,58.5,96,90,81,30.11,29.96,21,9,21,0.63
2013-4-30,67.5,64.4,62.7,64.7,62.2,59.3,97,93,87,30.09,29.96,15,6,15,0.00
2013-5-1,70.8,64.3,60.1,65.2,60.5,57.7,93,88,72,30.23,30.06,20,8,20,0.04
2013-5-2,69.8,63.5,58.9,62.6,59.2,55.4,96,86,65,30.25,30.17,24,10,24,0.12
2013-5-3,68.3,61.0,56.5,59.2,53.4,46.8,94,77,57,30.18,30.10,32,14,32,0.00
2013-5-4,64.5,58.4,54.1,57.7,54.5,50.9,95,87,73,30.11,30.01,30,12,30,0.05
2013-5-5,69.0,62.2,55.9,63.2,58.9,53.8,94,89,81,30.02,29.94,25,13,25,0.03
2013-5-6,66.8,64.6,62.5,63.3,61.6,60.2,95,90,84,29.95,29.85,33,13,33,0.39
2013-5-7,64.0,63.0,61.7,61.3,58.3,54.1,94,85,74,29.95,29.84,24,8,24,0.01
2013-5-8,66.6,64.7,62.8,62.8,60.0,56.5,90,85,72,30.02,29.92,23,10,23,0.00
2013-5-9,67.5,66.0,62.8,64.7,62.7,59.5,92,89,82,30.06,29.95,20,8,20,0.00
2013-5-10,69.7,67.1,63.1,67.5,64.7,61.3,95,92,88,30.08,30.00,19,6,19,0.00
2013-5-11,70.3,68.8,67.4,68.1,66.5,65.0,95,93,85,30.02,29.82,25,12,25,0.00
2013-5-12,77.4,70.3,65.9,67.8,62.8,49.2,96,79,41,29.95,29.76,18,8,18,0.00
2013-5-13,69.2,63.0,56.1,50.5,43.7,36.0,70,50,32,30.11,29.95,20,7,20,0.00
2013-5-14,68.2,60.2,52.1,53.8,41.9,31.0,74,53,27,30.23,30.11,24,9,24,0.00
2013-5-15,68.8,67.3,65.5,64.4,61.4,53.1,86,81,65,30.12,29.94,27,16,27,0.00
2013-5-16,70.8,68.9,67.4,67.4,65.5,63.9,92,89,86,29.98,29.90,29,15,29,0.00
2013-5-17,79.8,70.7,68.2,67.9,66.8,65.1,92,88,65,30.11,29.96,16,6,16,0.00
2013-5-18,72.4,70.4,0.0,69.7,68.2,0.0,93,91,91,30.13,30.10,8,5,8,0.00
2013-5-19,73.1,71.7,70.2,70.2,69.2,67.4,94,92,88,30.16,30.09,22,5,22,0.00
2013-5-20,73.2,71.9,69.9,70.3,69.0,67.1,93,91,88,30.14,30.06,21,8,21,0.00
2013-5-21,72.8,72.3,71.8,70.5,70.0,69.2,94,92,90,30.07,29.98,19,11,19,0.00
2013-5-22,75.3,73.2,71.2,72.1,70.7,69.0,95,92,88,30.05,29.97,21,8,21,0.00
2013-5-23,73.0,72.2,69.9,71.4,70.4,68.1,96,94,92,29.99,29.83,19,7,19,0.31
2013-5-24,78.3,71.7,61.2,71.4,61.4,43.9,97,72,47,30.11,29.75,24,8,24,0.00
2013-5-25,72.2,61.9,50.4,57.0,43.4,37.6,77,53,31,30.24,30.10,21,6,21,0.00
2013-5-26,71.8,65.8,57.5,59.6,55.3,50.3,85,69,49,30.22,30.12,15,5,15,0.00
2013-5-27,70.5,67.5,62.1,64.7,58.6,50.8,87,74,53,30.27,30.18,11,5,11,0.00
2013-5-28,74.0,71.3,67.1,69.6,67.0,63.4,92,87,81,30.26,30.19,13,5,13,0.00
2013-5-29,74.9,73.3,70.5,70.4,69.3,68.1,93,87,82,30.26,30.17,12,6,12,0.00
2013-5-30,77.1,74.2,71.3,73.0,70.6,68.1,91,89,85,30.27,30.19,11,5,11,0.00
2013-5-31,76.9,75.0,73.4,73.1,72.0,70.8,92,90,87,30.23,30.13,16,8,16,0.00
2013-6-1,76.7,75.5,74.1,72.9,71.9,70.8,93,89,84,30.17,30.07,19,10,19,0.00
2013-6-2,76.2,75.4,74.8,73.1,72.1,71.0,93,89,87,30.09,29.96,18,11,18,0.00
2013-6-3,75.4,73.5,69.1,73.4,71.4,66.9,95,93,90,29.98,29.85,48,11,48,0.15
2013-6-4,78.3,73.1,68.4,72.5,69.8,66.0,97,90,73,30.08,29.89,21,6,21,0.00
2013-6-5,78.2,72.9,68.9,67.8,65.1,57.4,89,77,51,30.10,30.01,19,11,19,0.00
2013-6-6,75.5,74.5,72.2,73.3,71.0,66.8,95,89,83,30.03,29.85,20,11,20,0.10
2013-6-7,78.7,76.5,74.8,75.1,73.5,71.6,96,91,83,29.86,29.57,49,22,49,0.53
2013-6-8,77.1,76.1,74.4,75.0,74.3,71.9,95,94,89,30.09,29.84,26,15,26,0.00
2013-6-9,77.8,76.1,75.1,76.4,74.4,70.4,97,94,85,30.15,30.08,22,9,22,0.00
2013-6-10,77.7,76.6,73.4,75.3,74.1,70.4,94,92,87,30.14,29.98,118,22,118,0.01
2013-6-11,78.0,76.9,75.1,75.9,73.6,71.1,94,89,84,29.99,29.87,123,30,123,0.01
2013-6-12,84.0,78.1,73.0,77.3,74.0,68.0,96,88,60,29.96,29.86,17,8,17,0.00
2013-6-13,81.7,79.2,72.9,77.9,76.2,65.3,96,91,60,29.87,29.61,31,15,31,0.14
2013-6-14,79.0,73.7,69.2,70.4,62.3,56.6,93,69,49,30.00,29.66,20,8,20,0.12
2013-6-15,79.1,74.1,66.6,66.6,61.3,56.2,87,65,46,30.10,29.99,28,11,28,0.00
2013-6-16,77.8,76.4,72.4,69.8,67.7,66.1,82,75,69,30.15,30.04,24,15,24,0.00
2013-6-17,78.0,77.4,76.8,73.8,71.1,67.0,88,81,72,30.06,29.97,28,17,28,0.00
2013-6-18,79.1,77.9,75.4,76.9,74.8,71.0,94,90,85,29.99,29.78,37,14,37,0.00
2013-6-19,78.5,73.4,70.0,74.8,69.7,65.3,94,88,77,30.08,29.82,119,14,119,0.23
2013-6-20,81.5,73.7,66.4,69.3,63.7,55.0,94,73,41,30.18,30.05,24,10,24,0.00
2013-6-21,82.3,74.2,66.8,73.6,69.5,63.6,95,86,70,30.18,30.12,22,10,22,0.00
2013-6-22,77.7,75.4,72.4,74.5,72.1,69.2,94,90,82,30.17,30.12,31,16,31,0.58
2013-6-23,78.9,77.5,75.3,75.5,74.6,71.8,93,91,85,30.21,30.14,24,9,24,0.11
2013-6-24,79.0,78.1,74.9,76.1,74.9,68.9,93,90,73,30.22,30.10,23,11,23,0.03
2013-6-25,79.2,77.7,71.9,76.4,74.7,69.1,93,91,78,30.14,30.02,25,13,25,0.09
2013-6-26,79.3,78.6,77.8,76.7,75.5,74.1,94,90,86,30.04,29.93,27,16,27,0.00
2013-6-27,79.8,78.3,73.8,77.3,75.0,68.7,93,90,83,29.93,29.75,35,18,35,0.01
2013-6-28,79.5,79.0,76.7,77.6,76.7,72.6,95,93,87,29.79,29.63,37,19,37,0.00
2013-6-29,79.3,78.4,77.4,77.2,75.5,74.0,94,91,88,29.79,29.62,36,20,36,0.00
2013-6-30,78.5,76.8,73.4,76.2,74.2,70.3,95,92,87,29.91,29.75,36,16,36,0.40
2013-7-1,78.4,76.9,73.3,76.4,74.3,70.5,95,92,86,30.06,29.87,37,16,37,0.31
2013-7-2,80.7,78.1,73.2,77.5,75.4,70.4,95,91,87,30.21,30.05,41,11,41,0.17
2013-7-3,81.0,79.0,75.5,77.6,76.3,72.9,95,91,87,30.26,30.17,31,9,32,0.14
2013-7-4,80.8,79.7,77.3,77.0,75.3,72.8,92,87,80,30.28,30.22,17,9,17,0.00
2013-7-5,82.0,80.3,78.1,77.0,75.8,73.4,92,86,81,30.29,30.19,17,10,17,0.00
2013-7-6,81.3,80.3,79.3,75.6,74.3,72.7,87,82,78,30.25,30.15,19,10,19,0.00
2013-7-7,80.7,79.9,79.3,74.6,73.1,71.4,84,80,77,30.19,30.09,19,11,19,0.00
2013-7-8,80.3,79.3,78.1,74.8,73.6,71.4,86,83,75,30.19,30.10,19,11,20,0.00
2013-7-9,80.3,79.0,74.9,76.3,74.8,69.3,92,87,78,30.19,30.10,22,9,22,0.01
2013-7-10,80.4,79.3,78.0,76.8,75.6,74.8,92,88,85,30.13,29.99,22,10,22,0.00
2013-7-11,80.1,78.9,76.9,76.2,75.2,73.6,92,88,84,30.01,29.89,27,14,27,0.00
2013-7-12,79.6,76.3,72.5,76.2,73.4,70.6,95,91,86,29.98,29.87,120,12,120,1.28
2013-7-13,81.1,78.4,74.3,76.1,74.3,72.2,96,87,79,30.18,29.96,34,14,34,0.20
2013-7-14,81.3,80.2,78.9,76.9,76.1,73.9,92,87,82,30.26,30.17,19,12,19,0.00
2013-7-15,81.5,80.2,76.5,76.8,75.7,73.6,94,86,78,30.27,30.22,19,8,19,0.00
2013-7-16,85.9,80.9,75.2,77.2,75.4,71.6,95,84,65,30.25,30.15,19,7,19,0.00
2013-7-17,85.7,80.9,76.9,78.1,75.3,72.2,87,83,74,30.17,30.08,20,4,20,0.00
2013-7-18,84.3,81.0,76.2,77.5,74.7,71.6,91,81,67,30.12,30.05,18,6,18,0.00
2013-7-19,81.8,80.8,78.7,77.7,76.4,75.1,90,86,82,30.12,30.01,24,13,24,0.00
2013-7-20,81.2,80.2,78.8,77.2,75.5,73.4,90,86,79,30.06,29.96,32,18,32,0.00
2013-7-21,79.9,78.9,77.8,76.9,75.2,72.1,92,89,80,30.01,29.92,28,15,28,0.01
2013-7-22,79.6,78.3,76.3,76.6,75.7,74.4,94,92,87,29.96,29.83,34,11,34,0.00
2013-7-23,78.3,77.4,76.7,76.1,74.9,73.7,94,92,90,29.87,29.73,25,15,25,0.00
2013-7-24,78.7,77.2,75.6,76.7,75.4,73.7,95,94,92,29.81,29.73,16,7,16,0.00
2013-7-25,85.0,77.9,72.8,76.4,73.5,70.0,96,87,71,29.97,29.75,21,5,21,0.00
2013-7-26,78.8,75.6,70.6,72.2,70.3,68.4,94,84,75,30.07,29.97,17,8,17,0.00
2013-7-27,78.8,75.4,72.4,71.6,70.2,69.1,90,84,77,30.03,29.99,15,6,15,0.00
2013-7-28,82.3,79.8,77.3,77.6,75.9,73.8,92,88,78,30.00,29.87,24,11,24,0.00
2013-7-29,80.8,79.4,76.8,78.3,75.9,72.7,92,89,84,30.12,29.99,22,9,22,0.01
2013-7-30,79.1,76.9,73.8,74.4,72.8,70.8,92,87,81,30.17,30.11,13,4,13,0.00
2013-7-31,80.8,78.0,74.5,75.0,72.5,67.8,94,84,66,30.12,30.08,15,7,15,0.00
2013-8-1,80.5,80.5,80.5,71.1,71.1,71.1,73,73,73,30.08,30.08,10,10,13,0.00
2013-8-2,81.2,80.3,77.2,77.9,75.9,71.1,91,87,73,30.08,29.95,26,13,26,0.00
2013-8-3,81.0,80.2,79.6,77.9,77.2,76.2,92,91,88,30.03,29.90,23,12,23,0.00
2013-8-4,82.7,78.4,74.0,77.1,73.2,66.8,94,85,64,29.99,29.84,19,5,19,0.42
2013-8-5,79.5,75.7,69.4,67.1,64.6,53.8,89,70,42,30.06,29.98,17,7,17,0.00
2013-8-6,80.1,78.4,73.5,71.8,67.9,61.9,80,70,58,30.06,29.98,16,6,17,0.00
2013-8-7,80.7,79.3,74.4,75.5,72.2,67.9,88,79,69,30.08,30.02,18,9,18,0.00
2013-8-8,82.7,81.1,79.8,78.4,76.8,74.8,91,87,82,30.06,30.00,16,9,16,0.00
2013-8-9,81.8,81.2,79.7,78.6,77.7,75.4,92,89,85,30.08,30.01,26,14,26,0.00
2013-8-10,81.5,80.6,79.4,78.5,77.6,74.2,93,91,84,30.11,30.01,24,14,25,0.00
2013-8-11,83.9,79.9,78.3,78.2,76.6,73.9,92,90,82,30.09,30.04,15,6,15,0.00
2013-8-12,82.4,80.0,78.0,79.9,77.0,72.8,95,90,78,30.04,29.92,16,7,20,0.00
2013-8-13,81.3,80.1,76.5,79.3,77.5,74.0,94,92,83,29.93,29.78,22,12,28,0.00
2013-8-14,80.6,74.9,69.6,78.1,70.6,63.1,95,87,76,30.02,29.77,22,8,38,0.11
2013-8-15,69.8,67.3,65.4,67.4,64.7,62.6,96,92,79,30.09,30.02,17,6,17,0.63
2013-8-16,73.9,70.5,67.4,69.9,68.0,65.3,95,92,85,30.11,30.01,16,6,16,0.00
2013-8-17,77.4,73.0,68.1,74.9,71.4,65.8,97,95,90,30.10,30.01,25,8,25,0.68
2013-8-18,79.6,76.4,72.5,76.9,74.3,71.6,98,93,87,30.17,30.09,13,5,13,0.01
2013-8-19,78.2,75.6,73.7,76.2,74.1,72.2,97,95,91,30.14,30.06,17,6,17,0.74
2013-8-20,79.2,76.8,73.3,75.1,73.9,72.1,97,91,84,30.15,30.06,15,7,15,0.00
2013-8-21,81.2,78.6,73.9,78.3,75.6,71.7,96,91,84,30.20,30.09,19,5,19,0.00
2013-8-22,83.5,78.7,75.1,77.6,74.7,71.0,92,88,79,30.12,29.99,19,7,19,0.00
2013-8-23,81.5,78.5,74.1,78.7,75.1,70.5,94,89,82,30.01,29.89,22,8,22,0.00
2013-8-24,81.2,74.3,69.3,71.8,67.9,64.9,96,81,60,30.22,29.98,28,8,28,0.00
2013-8-25,80.2,72.8,66.2,66.9,64.6,62.2,87,76,59,30.30,30.20,22,9,22,0.00
2013-8-26,78.7,72.7,65.2,68.9,65.2,61.8,90,78,64,30.26,30.10,14,6,14,0.03
2013-8-27,78.8,76.2,70.6,70.1,66.6,62.7,84,73,60,30.11,29.96,24,11,24,0.00
2013-8-28,79.3,77.8,75.1,76.6,72.9,68.2,92,85,74,29.99,29.88,25,13,25,0.00
2013-8-29,87.3,80.0,74.1,76.8,74.2,70.3,91,83,70,29.96,29.82,21,9,21,0.13
2013-8-30,79.3,75.3,69.2,75.1,71.3,67.4,95,87,77,30.00,29.93,17,8,17,0.00
2013-8-31,81.1,78.8,73.3,77.2,75.0,71.7,96,89,81,29.97,29.88,13,5,13,0.00
2013-9-1,81.0,80.0,78.2,78.4,77.2,75.8,94,91,90,29.93,29.82,25,13,25,0.00
2013-9-2,81.5,79.8,73.6,79.0,77.1,71.2,95,92,87,29.89,29.80,31,14,31,0.06
2013-9-3,81.1,78.5,72.9,78.5,74.9,69.4,94,89,80,29.92,29.80,27,12,27,0.13
2013-9-4,80.1,76.7,70.7,75.8,72.6,68.5,94,87,81,30.05,29.91,14,6,14,0.00
2013-9-5,81.0,78.6,75.7,77.5,76.1,74.2,96,92,88,30.06,30.01,7,2,7,0.00
2013-9-6,83.8,75.8,69.8,75.7,71.3,66.9,95,86,68,30.07,30.00,33,8,33,0.08
2013-9-7,79.3,73.7,67.5,67.2,63.2,56.9,88,71,48,30.07,29.96,16,7,16,0.00
2013-9-8,80.2,76.7,68.9,73.8,68.7,62.4,90,77,65,29.97,29.88,15,7,15,0.00
2013-9-9,81.2,78.4,74.0,74.5,72.6,70.6,91,83,74,30.13,29.96,18,7,18,0.00
2013-9-10,82.0,78.2,72.7,75.0,72.3,69.7,92,83,68,30.20,30.12,20,8,20,0.00
2013-9-11,80.8,77.9,72.3,72.8,71.4,69.0,91,81,71,30.19,30.07,16,6,16,0.00
2013-9-12,80.7,78.2,73.1,75.6,73.1,71.2,94,84,76,30.07,29.80,25,8,25,0.00
2013-9-13,85.2,79.7,74.7,75.5,72.0,68.5,86,78,59,29.81,29.70,29,10,29,0.00
2013-9-14,78.8,72.6,66.8,68.8,65.0,60.4,87,77,64,30.09,29.79,21,9,21,0.00
2013-9-15,77.8,72.8,65.7,72.2,65.9,63.0,92,79,63,30.19,30.08,18,9,18,0.00
2013-9-16,81.0,75.9,69.7,75.4,71.9,66.3,94,87,80,30.12,30.01,21,5,21,0.43
2013-9-17,76.3,69.6,63.2,66.6,61.8,55.4,91,77,63,30.23,30.09,25,10,27,0.00
2013-9-18,75.5,67.0,57.8,63.5,58.4,54.4,90,75,58,30.22,30.12,19,8,19,0.00
2013-9-19,76.5,68.8,61.4,64.5,57.9,52.3,90,70,44,30.15,30.06,15,5,15,0.00
2013-9-20,76.1,71.4,65.9,66.6,64.6,62.7,92,80,65,30.07,29.95,13,4,13,0.00
2013-9-21,78.5,72.8,68.4,72.6,68.6,63.6,94,87,79,29.95,29.73,18,7,18,0.01
2013-9-22,78.7,73.7,68.0,73.9,69.9,64.3,94,88,74,29.81,29.65,37,11,37,0.37
2013-9-23,72.5,67.2,61.3,64.3,57.6,53.1,89,72,54,30.05,29.81,19,6,19,0.00
2013-9-24,73.1,66.4,57.8,60.2,56.6,52.9,89,72,52,30.08,29.94,16,6,16,0.00
2013-9-25,71.8,67.0,61.8,61.1,59.5,56.9,88,77,66,29.94,29.83,16,6,16,0.00
2013-9-26,76.8,68.8,62.9,65.1,61.9,60.1,92,79,60,29.95,29.81,16,6,16,0.04
2013-9-27,74.2,67.6,62.2,63.3,59.1,54.0,93,76,53,30.09,29.93,27,9,27,0.00
2013-9-28,76.0,68.3,62.3,63.1,60.6,58.6,89,77,60,30.13,30.05,24,9,24,0.00
2013-9-29,76.0,67.1,61.1,64.9,61.6,58.8,93,83,61,30.08,29.96,16,6,16,0.00
2013-9-30,75.2,66.5,58.2,60.9,55.8,47.9,94,71,43,30.04,29.95,13,5,13,0.00
2013-10-1,64.3,61.8,59.4,58.3,56.8,54.9,90,84,72,30.04,30.01,7,4,7,0.00
2013-10-2,77.8,72.5,64.3,70.4,64.7,59.2,87,77,60,30.10,30.02,15,6,15,0.00
2013-10-3,77.7,73.3,67.0,71.4,68.9,64.9,93,86,75,30.13,30.07,11,5,11,0.00
2013-10-4,77.7,75.2,71.6,71.6,70.4,68.7,93,85,77,30.13,30.05,10,5,10,0.00
2013-10-5,78.5,74.7,68.2,73.4,70.6,66.6,95,87,75,30.10,30.04,11,4,11,0.00
2013-10-6,77.5,76.4,73.9,74.4,72.7,71.1,93,88,84,30.06,29.95,24,7,24,0.07
2013-10-7,79.3,77.5,72.9,74.7,73.5,69.9,92,88,82,29.95,29.84,20,9,20,0.02
2013-10-8,72.6,65.1,62.1,70.5,63.7,60.8,97,95,92,30.04,29.88,25,11,25,2.31
2013-10-9,65.9,63.4,60.7,64.5,62.1,59.6,97,96,94,30.03,29.85,28,12,28,1.35
2013-10-10,62.7,60.7,59.5,61.2,59.4,58.2,97,95,92,29.87,29.82,25,10,25,0.11
2013-10-11,65.6,62.7,59.8,62.6,60.7,58.7,96,93,90,29.93,29.83,17,6,17,0.04
2013-10-12,68.5,65.5,62.9,65.3,63.3,61.5,95,92,88,30.00,29.90,11,4,11,0.02
2013-10-13,77.7,70.0,65.6,70.1,67.1,64.4,97,91,75,30.08,29.99,17,5,17,0.02
2013-10-14,71.7,69.6,65.7,68.6,66.0,62.0,94,88,84,30.10,30.04,19,10,21,0.02
2013-10-15,71.0,65.9,62.6,66.0,63.3,60.6,95,91,84,30.07,29.96,18,7,18,0.02
2013-10-16,73.0,68.9,66.1,67.7,66.0,64.6,95,91,83,29.98,29.91,13,5,13,0.01
2013-10-17,72.7,68.7,63.1,69.5,65.3,61.7,95,89,82,29.96,29.86,17,7,17,0.00
2013-10-18,73.0,70.5,68.4,70.3,67.2,65.5,96,89,79,29.98,29.86,19,8,19,0.06
2013-10-19,72.9,70.6,67.8,71.7,69.3,66.9,98,96,91,29.93,29.82,14,4,14,0.23
2013-10-20,71.0,64.4,59.5,68.2,57.4,53.5,91,78,65,30.07,29.84,20,6,20,0.01
2013-10-21,68.8,62.0,54.5,59.1,55.6,51.9,91,80,63,30.11,29.97,14,4,14,0.00
2013-10-22,67.5,63.7,59.5,60.9,56.5,51.7,91,77,70,29.97,29.81,10,4,13,0.00
2013-10-23,71.2,63.5,56.0,61.2,55.3,41.3,95,77,51,29.93,29.63,29,8,29,0.17
2013-10-24,60.2,53.0,44.6,46.3,38.7,33.5,77,60,39,30.14,29.92,16,6,16,0.00
2013-10-25,56.6,50.5,46.3,46.0,36.9,29.8,80,61,37,30.32,30.12,19,6,19,0.00
2013-10-26,61.9,51.7,40.5,48.9,39.7,33.5,80,65,49,30.32,30.08,16,6,16,0.00
2013-10-27,63.8,57.9,50.8,50.8,44.2,37.7,74,60,50,30.13,30.04,14,5,14,0.00
2013-10-28,67.5,62.0,52.9,58.3,51.6,48.0,86,70,52,30.23,30.12,10,2,10,0.00
2013-10-29,68.9,62.1,55.0,59.7,54.5,49.9,87,77,57,30.29,30.20,12,5,12,0.00
2013-10-30,69.7,63.9,56.9,63.7,58.3,54.5,94,82,70,30.29,30.17,10,4,10,0.00
2013-10-31,71.5,68.4,62.2,68.7,65.3,59.8,94,90,84,30.21,29.98,28,9,28,0.00
2013-11-1,72.5,71.2,67.4,70.2,68.7,65.3,95,92,82,29.99,29.73,41,15,41,0.01
2013-11-2,71.4,66.3,62.5,69.9,62.4,56.9,96,88,71,29.85,29.67,26,8,26,0.24
2013-11-3,62.6,56.6,50.6,57.7,45.2,39.9,85,67,45,30.30,29.85,18,7,18,0.00
2013-11-4,57.4,51.2,45.2,44.9,41.4,37.5,88,70,52,30.45,30.30,25,8,25,0.00
2013-11-5,71.5,60.3,48.1,59.7,53.4,44.8,90,79,58,30.41,30.34,30,11,30,0.00
2013-11-6,68.0,62.5,56.2,64.2,60.0,53.5,97,91,84,30.34,30.08,21,8,21,0.12
2013-11-7,70.0,65.4,55.7,67.8,62.8,42.4,98,92,62,30.08,29.87,29,6,29,0.07
2013-11-8,56.4,50.9,45.9,42.3,36.2,29.2,78,59,37,30.29,29.99,21,7,21,0.00
2013-11-9,62.2,53.2,41.6,52.9,44.0,36.2,82,71,52,30.34,30.17,17,6,17,0.00
2013-11-10,66.8,59.8,53.3,55.6,48.0,38.5,82,66,40,30.20,30.05,19,9,19,0.00
2013-11-11,59.3,52.6,45.2,47.3,42.1,35.5,84,68,56,30.28,30.13,19,6,19,0.00
2013-11-12,66.3,51.7,36.0,47.5,40.1,26.5,89,67,38,30.31,29.98,26,8,28,0.00
2013-11-13,44.2,37.6,32.4,31.0,24.2,19.1,90,60,38,30.47,30.30,26,8,26,0.01
2013-11-14,57.7,45.9,32.9,42.6,27.5,20.1,84,52,25,30.49,30.33,12,4,12,0.00
2013-11-15,63.4,56.9,42.5,60.1,49.7,37.6,94,77,54,30.35,30.20,16,6,16,0.18
2013-11-16,68.3,62.9,58.4,65.1,60.8,57.6,97,93,85,30.22,30.15,14,5,14,0.06
2013-11-17,67.5,62.5,56.3,66.2,61.2,55.1,97,96,93,30.17,29.92,27,5,27,0.02
2013-11-18,67.9,65.5,61.3,66.8,63.6,47.8,98,94,60,29.94,29.75,22,8,22,0.04
2013-11-19,61.3,52.1,44.4,48.3,36.5,31.4,80,56,41,30.24,29.86,22,8,22,0.00
2013-11-20,58.1,50.3,43.8,47.3,43.0,36.9,86,76,66,30.35,30.21,23,11,23,0.00
2013-11-21,64.1,56.6,50.6,59.4,53.8,46.6,97,90,84,30.40,30.33,20,8,20,0.00
2013-11-22,66.3,60.0,53.9,63.1,58.1,52.8,97,94,87,30.35,30.08,13,5,13,0.00
2013-11-23,65.3,58.6,51.3,62.4,56.0,32.2,96,91,50,30.08,29.98,23,6,23,0.01
2013-11-24,51.2,38.2,30.6,32.2,17.9,8.7,59,44,28,30.51,30.06,21,9,23,0.01
2013-11-25,43.6,35.1,26.3,35.1,22.9,13.6,82,61,47,30.56,30.32,15,6,15,0.00
2013-11-26,67.5,57.5,40.1,65.7,54.9,35.8,98,91,80,30.32,29.63,37,14,37,0.22
2013-11-27,68.7,54.7,36.6,66.6,52.6,28.1,98,93,70,30.11,29.41,31,15,31,0.35
2013-11-28,43.7,36.6,30.1,30.6,25.2,20.3,78,64,44,30.47,30.10,20,6,20,0.25
2013-11-29,53.2,42.7,36.0,33.5,30.5,25.2,80,64,35,30.55,30.44,19,6,19,0.07
2013-11-30,56.7,46.0,36.1,47.2,39.8,30.2,90,79,68,30.54,30.30,21,8,21,0.02
2013-12-1,55.1,49.4,44.1,51.8,47.0,41.6,96,92,84,30.29,29.98,13,4,13,0.01
2013-12-2,55.4,50.4,46.6,50.0,46.6,41.0,96,87,73,29.98,29.76,11,4,12,0.01
2013-12-3,56.5,50.5,40.7,51.7,43.3,37.8,91,77,57,30.00,29.84,8,1,8,0.01
2013-12-4,63.3,58.8,53.8,62.1,57.0,49.2,97,94,83,30.10,29.99,8,1,8,0.01
2013-12-5,66.7,60.6,54.4,65.4,59.8,53.7,98,97,95,30.16,30.08,13,2,13,0.02
2013-12-6,64.0,61.9,60.1,62.8,61.0,59.4,98,97,94,30.15,30.05,15,8,15,0.01
2013-12-7,63.4,52.1,42.5,62.8,51.1,40.8,99,96,93,30.38,30.05,26,10,26,0.01
2013-12-8,45.2,43.2,41.3,43.5,41.8,40.2,96,95,91,30.37,30.22,19,8,19,0.01
2013-12-9,61.1,52.2,43.1,60.5,51.4,42.0,99,97,95,30.23,30.05,12,3,12,0.00
2013-12-10,61.1,53.5,39.9,60.6,52.4,38.2,99,96,89,30.30,29.83,30,8,30,0.01
2013-12-11,51.3,42.3,34.8,38.3,31.4,22.7,94,66,41,30.45,30.27,15,4,15,0.00
2013-12-12,46.7,41.0,36.5,35.9,29.5,24.2,80,65,43,30.37,30.23,20,5,20,0.00
2013-12-13,51.2,42.4,32.8,34.5,30.1,20.6,91,64,35,30.42,30.29,11,4,11,0.00
2013-12-14,64.3,53.7,41.7,61.6,47.1,30.9,98,79,57,30.31,29.74,34,12,34,0.00
2013-12-15,60.0,53.8,44.0,59.4,50.7,39.5,98,89,74,30.05,29.67,22,7,22,0.01
2013-12-16,55.3,47.3,38.3,48.1,38.7,31.9,88,73,47,30.18,30.04,17,6,17,0.00
2013-12-17,58.7,54.2,49.1,52.2,47.4,40.3,88,78,62,30.16,29.94,32,14,32,0.00
2013-12-18,55.1,46.7,41.9,45.8,30.3,21.3,73,54,33,30.30,29.96,23,6,23,0.00
2013-12-19,55.6,51.1,43.3,51.2,40.2,24.2,87,67,45,30.35,30.26,15,5,15,0.00
2013-12-20,61.8,56.9,49.5,59.2,54.8,47.2,96,93,88,30.26,30.14,11,2,11,0.00
2013-12-21,63.1,59.6,55.1,62.0,58.7,54.0,98,97,95,30.18,30.10,11,4,11,0.01
2013-12-22,65.8,61.8,60.3,65.2,61.2,59.7,99,98,97,30.14,30.08,24,9,24,0.00
2013-12-23,63.9,61.3,59.2,63.4,60.8,58.6,99,98,97,30.12,30.00,26,10,26,0.01
2013-12-24,59.4,45.7,37.4,58.5,40.7,27.1,97,83,63,30.38,30.01,22,7,22,0.00
2013-12-25,44.0,37.5,30.5,34.9,29.0,23.2,83,71,56,30.50,30.34,17,7,17,0.00
2013-12-26,46.2,42.1,39.4,45.1,39.3,34.7,96,90,83,30.35,30.20,16,7,18,0.00
2013-12-27,52.6,44.1,37.3,38.0,34.7,27.9,89,71,41,30.40,30.29,18,6,18,0.00
2013-12-28,56.1,47.7,37.8,46.8,37.2,29.4,85,68,42,30.39,30.14,14,5,14,0.01
2013-12-29,63.6,59.5,53.3,62.0,57.2,47.1,98,92,76,30.14,29.71,39,15,39,0.00
2013-12-30,57.3,51.2,46.4,50.9,47.7,45.2,96,88,73,30.10,29.90,11,3,11,0.01
2013-12-31,52.7,48.1,44.4,45.2,39.2,31.6,92,73,45,30.35,30.07,18,3,18,0.00
2014-1-1,53.2,46.1,39.9,44.9,37.5,30.4,92,72,44,30.41,30.11,10,2,10,0.00
2014-1-2,58.4,49.7,45.6,57.7,48.6,44.2,98,96,92,30.11,29.50,27,5,27,0.00